STARLINK-1693 (46543 NORAD) Tracking and Keplerian Element Data

This shows tracking and keplerian element data for the satellite.

Feedback or suggestion? Click here.




ElementValue
Catalog46543
NameSTARLINK-1693
Epoch Orbit177
Epoch Day304.91667824
Epoch Year2020
RAAN321.9272
Inclination53.0004
Eccentricity0.0001042
Argument of Perigee75.6008
Mean Anonmoly191.3755
Mean Motion15.62723112
Decay Rate7.438E-05
L11 46543U 20070M 20304.91667824 .00007438 00000-0 87086-4 0 9998
L22 46543 53.0004 321.9272 0001042 75.6008 191.3755 15.62723112 1771

Live tracking and technical data element details for STARLINK-1693 (NORAD 46543). STARLINK-1693 can be tracked NOW for your location showing map with azimuth and elevation plus other details from your city location.

Track the satellite on the map from your city or location and see movement details for azimuth, elevation, latitude, longitude, range, height, and movement on the map or in text.







IsCatalogInMostPopularTable: catalog: 46543, numindb: 3
Update: records affected: 1



GetName: 46543 STARLINK-1693

Hit Count: updated at: Sat, 31 Oct 2020 10:31:42 GMT